Time,TemperatureF,DewpointF,PressureIn,WindDirection,WindDirectionDegrees,WindSpeedMPH,WindSpeedGustMPH,Humidity,HourlyPrecipIn,Conditions,Clouds,dailyrainin,SoftwareType,DateUTC
2013-02-14 00:00:00,37.7,33.6,29.90,North,360,0.0,0.0,85,0.00,,---,0.00,VWS V14.00,2013-02-14 05:00:00,
2013-02-14 00:05:00,37.4,33.3,29.90,North,360,0.0,0.0,85,0.00,,---,0.00,VWS V14.00,2013-02-14 05:05:00,
2013-02-14 00:10:00,37.2,33.4,29.90,North,360,0.0,0.0,86,0.00,,---,0.00,VWS V14.00,2013-02-14 05:10:00,
2013-02-14 00:15:00,37.0,33.2,29.90,North,360,0.0,0.0,86,0.00,,---,0.00,VWS V14.00,2013-02-14 05:15:00,
2013-02-14 00:20:00,36.8,33.3,29.91,North,360,0.0,0.0,87,0.00,,---,0.00,VWS V14.00,2013-02-14 05:20:00,
2013-02-14 00:25:00,36.6,33.1,29.91,North,360,0.0,0.0,87,0.00,,---,0.00,VWS V14.00,2013-02-14 05:25:00,
2013-02-14 00:30:00,36.4,33.2,29.91,North,360,0.0,0.0,88,0.00,,---,0.00,VWS V14.00,2013-02-14 05:30:00,
2013-02-14 00:35:00,36.3,32.8,29.91,North,360,0.0,0.0,87,0.00,,---,0.00,VWS V14.00,2013-02-14 05:35:00,
2013-02-14 00:40:00,36.1,32.6,29.91,North,360,0.0,0.0,87,0.00,,---,0.00,VWS V14.00,2013-02-14 05:40:00,
2013-02-14 00:45:00,36.0,32.8,29.91,North,360,0.0,0.0,88,0.00,,---,0.00,VWS V14.00,2013-02-14 05:45:00,
2013-02-14 00:50:00,35.9,32.7,29.91,North,360,0.0,0.0,88,0.00,,---,0.00,VWS V14.00,2013-02-14 05:50:00,
2013-02-14 00:55:00,35.7,32.5,29.91,North,360,0.0,0.0,88,0.00,,---,0.00,VWS V14.00,2013-02-14 05:55:00,
2013-02-14 01:00:00,35.6,32.7,29.91,North,360,0.0,0.0,89,0.00,,---,0.00,VWS V14.00,2013-02-14 06:00:00,
2013-02-14 01:05:00,35.5,32.6,29.91,North,360,0.0,0.0,89,0.00,,---,0.00,VWS V14.00,2013-02-14 06:05:00,
2013-02-14 01:10:00,35.3,32.4,29.91,North,360,0.0,0.0,89,0.00,,---,0.00,VWS V14.00,2013-02-14 06:10:00,
2013-02-14 01:15:00,35.3,32.7,29.91,North,360,0.0,0.0,90,0.00,,---,0.00,VWS V14.00,2013-02-14 06:15:00,
2013-02-14 01:20:00,35.2,32.6,29.92,North,360,0.0,0.0,90,0.00,,---,0.00,VWS V14.00,2013-02-14 06:20:00,
2013-02-14 01:25:00,35.2,32.6,29.92,North,360,0.0,0.0,90,0.00,,---,0.00,VWS V14.00,2013-02-14 06:25:00,
2013-02-14 01:30:00,35.1,32.5,29.92,North,360,0.0,1.0,90,0.00,,---,0.00,VWS V14.00,2013-02-14 06:30:00,
2013-02-14 01:35:00,35.1,32.5,29.92,North,360,0.0,0.0,90,0.00,,---,0.00,VWS V14.00,2013-02-14 06:35:00,
2013-02-14 01:40:00,35.0,32.4,29.92,North,360,0.0,0.0,90,0.00,,---,0.00,VWS V14.00,2013-02-14 06:40:00,
2013-02-14 01:45:00,35.1,32.2,29.92,North,360,0.0,3.0,89,0.00,,---,0.00,VWS V14.00,2013-02-14 06:45:00,
2013-02-14 01:50:00,35.1,32.5,29.92,North,360,0.0,0.0,90,0.00,,---,0.00,VWS V14.00,2013-02-14 06:50:00,
2013-02-14 01:55:00,35.1,32.2,29.92,North,360,0.0,0.0,89,0.00,,---,0.00,VWS V14.00,2013-02-14 06:55:00,
2013-02-14 02:00:00,35.3,32.4,29.92,North,360,0.0,0.0,89,0.00,,---,0.00,VWS V14.00,2013-02-14 07:00:00,
2013-02-14 02:05:00,35.4,32.2,29.92,North,355,1.0,4.0,88,0.00,,---,0.00,VWS V14.00,2013-02-14 07:05:00,
2013-02-14 02:10:00,35.5,32.3,29.92,North,5,0.0,4.0,88,0.00,,---,0.00,VWS V14.00,2013-02-14 07:10:00,
2013-02-14 02:15:00,35.6,32.1,29.92,NNW,343,0.0,3.0,87,0.00,,---,0.00,VWS V14.00,2013-02-14 07:15:00,
2013-02-14 02:20:00,36.2,32.4,29.92,NW,313,2.0,4.0,86,0.00,,---,0.00,VWS V14.00,2013-02-14 07:20:00,
2013-02-14 02:25:00,36.6,32.5,29.92,NE,47,0.0,2.0,85,0.00,,---,0.00,VWS V14.00,2013-02-14 07:25:00,
2013-02-14 02:30:00,36.8,32.4,29.92,NE,47,0.0,0.0,84,0.00,,---,0.00,VWS V14.00,2013-02-14 07:30:00,
2013-02-14 02:35:00,36.9,32.2,29.92,NE,47,0.0,0.0,83,0.00,,---,0.00,VWS V14.00,2013-02-14 07:35:00,
2013-02-14 02:40:00,36.8,32.1,29.92,NE,47,0.0,0.0,83,0.00,,---,0.00,VWS V14.00,2013-02-14 07:40:00,
2013-02-14 02:45:00,36.8,32.1,29.93,NE,47,0.0,0.0,83,0.00,,---,0.00,VWS V14.00,2013-02-14 07:45:00,
2013-02-14 02:50:00,36.6,32.2,29.93,NE,47,0.0,0.0,84,0.00,,---,0.00,VWS V14.00,2013-02-14 07:50:00,
2013-02-14 02:55:00,36.4,32.0,29.93,NNW,336,0.0,6.0,84,0.00,,---,0.00,VWS V14.00,2013-02-14 07:55:00,
2013-02-14 03:00:00,36.6,32.2,29.93,North,360,0.0,1.0,84,0.00,,---,0.00,VWS V14.00,2013-02-14 08:00:00,
2013-02-14 03:05:00,37.0,32.3,29.93,WNW,302,6.0,8.0,83,0.00,,---,0.00,VWS V14.00,2013-02-14 08:05:00,
2013-02-14 03:10:00,37.3,32.6,29.93,NNE,24,1.0,1.0,83,0.00,,---,0.00,VWS V14.00,2013-02-14 08:10:00,
2013-02-14 03:15:00,37.6,32.6,29.93,NE,36,2.0,4.0,82,0.00,,---,0.00,VWS V14.00,2013-02-14 08:15:00,
2013-02-14 03:20:00,37.7,32.7,29.93,North,9,4.0,6.0,82,0.00,,---,0.00,VWS V14.00,2013-02-14 08:20:00,
2013-02-14 03:25:00,37.9,32.6,29.93,North,11,0.0,0.0,81,0.00,,---,0.00,VWS V14.00,2013-02-14 08:25:00,
2013-02-14 03:30:00,37.9,32.6,29.93,NNW,342,1.0,4.0,81,0.00,,---,0.00,VWS V14.00,2013-02-14 08:30:00,
2013-02-14 03:35:00,37.9,32.6,29.93,NNW,346,0.0,1.0,81,0.00,,---,0.00,VWS V14.00,2013-02-14 08:35:00,
2013-02-14 03:40:00,38.0,32.7,29.93,North,9,3.0,4.0,81,0.00,,---,0.00,VWS V14.00,2013-02-14 08:40:00,
2013-02-14 03:45:00,38.0,32.4,29.93,NNW,341,2.0,7.0,80,0.00,,---,0.00,VWS V14.00,2013-02-14 08:45:00,
2013-02-14 03:50:00,38.2,32.6,29.93,North,350,4.0,5.0,80,0.00,,---,0.00,VWS V14.00,2013-02-14 08:50:00,
2013-02-14 03:55:00,38.2,32.6,29.93,NNW,335,0.0,0.0,80,0.00,,---,0.00,VWS V14.00,2013-02-14 08:55:00,
2013-02-14 04:00:00,38.3,32.4,29.94,NW,319,2.0,5.0,79,0.00,,---,0.00,VWS V14.00,2013-02-14 09:00:00,
2013-02-14 04:05:00,38.3,32.4,29.93,NNW,338,4.0,4.0,79,0.00,,---,0.00,VWS V14.00,2013-02-14 09:05:00,
2013-02-14 04:10:00,38.3,32.4,29.94,North,360,0.0,7.0,79,0.00,,---,0.00,VWS V14.00,2013-02-14 09:10:00,
2013-02-14 04:15:00,38.3,32.4,29.94,North,360,5.0,6.0,79,0.00,,---,0.00,VWS V14.00,2013-02-14 09:15:00,
2013-02-14 04:20:00,38.3,32.0,29.94,NW,318,4.0,5.0,78,0.00,,---,0.00,VWS V14.00,2013-02-14 09:20:00,
2013-02-14 04:25:00,38.3,32.4,29.95,NNW,343,3.0,4.0,79,0.00,,---,0.00,VWS V14.00,2013-02-14 09:25:00,
2013-02-14 04:30:00,38.3,32.0,29.95,ENE,73,2.0,3.0,78,0.00,,---,0.00,VWS V14.00,2013-02-14 09:30:00,
2013-02-14 04:35:00,38.2,32.3,29.95,NW,325,3.0,3.0,79,0.00,,---,0.00,VWS V14.00,2013-02-14 09:35:00,
2013-02-14 04:40:00,38.0,32.1,29.95,North,355,0.0,0.0,79,0.00,,---,0.00,VWS V14.00,2013-02-14 09:40:00,
2013-02-14 04:45:00,37.9,32.3,29.95,NNE,33,0.0,0.0,80,0.00,,---,0.00,VWS V14.00,2013-02-14 09:45:00,
2013-02-14 04:50:00,37.7,32.1,29.95,NNW,346,1.0,2.0,80,0.00,,---,0.00,VWS V14.00,2013-02-14 09:50:00,
2013-02-14 04:55:00,37.6,32.0,29.95,NNE,29,2.0,5.0,80,0.00,,---,0.00,VWS V14.00,2013-02-14 09:55:00,
2013-02-14 05:00:00,37.5,31.9,29.95,NNW,335,0.0,2.0,80,0.00,,---,0.00,VWS V14.00,2013-02-14 10:00:00,
2013-02-14 05:05:00,37.4,31.8,29.95,NE,37,0.0,0.0,80,0.00,,---,0.00,VWS V14.00,2013-02-14 10:05:00,
2013-02-14 05:10:00,37.2,31.6,29.96,NNE,13,0.0,3.0,80,0.00,,---,0.00,VWS V14.00,2013-02-14 10:10:00,
2013-02-14 05:15:00,37.1,31.8,29.96,North,360,0.0,0.0,81,0.00,,---,0.00,VWS V14.00,2013-02-14 10:15:00,
2013-02-14 05:20:00,37.0,31.7,29.96,NE,45,0.0,0.0,81,0.00,,---,0.00,VWS V14.00,2013-02-14 10:20:00,
2013-02-14 05:25:00,36.9,31.6,29.96,NE,45,0.0,2.0,81,0.00,,---,0.00,VWS V14.00,2013-02-14 10:25:00,
2013-02-14 05:30:00,36.8,31.5,29.96,NNW,333,1.0,1.0,81,0.00,,---,0.00,VWS V14.00,2013-02-14 10:30:00,
2013-02-14 05:35:00,36.8,31.5,29.96,North,9,0.0,3.0,81,0.00,,---,0.00,VWS V14.00,2013-02-14 10:35:00,
2013-02-14 05:40:00,36.6,31.6,29.96,North,355,0.0,4.0,82,0.00,,---,0.00,VWS V14.00,2013-02-14 10:40:00,
2013-02-14 05:45:00,36.5,31.5,29.97,North,350,0.0,0.0,82,0.00,,---,0.00,VWS V14.00,2013-02-14 10:45:00,
2013-02-14 05:50:00,36.4,31.4,29.97,North,350,0.0,0.0,82,0.00,,---,0.00,VWS V14.00,2013-02-14 10:50:00,
2013-02-14 05:55:00,36.2,31.2,29.97,North,360,0.0,0.0,82,0.00,,---,0.00,VWS V14.00,2013-02-14 10:55:00,
2013-02-14 06:00:00,36.0,31.0,29.97,NNE,13,0.0,0.0,82,0.00,,---,0.00,VWS V14.00,2013-02-14 11:00:00,
2013-02-14 06:05:00,35.8,30.9,29.97,NNE,13,0.0,0.0,82,0.00,,---,0.00,VWS V14.00,2013-02-14 11:05:00,
2013-02-14 06:10:00,35.7,30.8,29.97,NNW,341,0.0,0.0,82,0.00,,---,0.00,VWS V14.00,2013-02-14 11:10:00,
2013-02-14 06:15:00,35.5,30.6,29.97,NNW,341,0.0,0.0,82,0.00,,---,0.00,VWS V14.00,2013-02-14 11:15:00,
2013-02-14 06:20:00,35.3,30.7,29.97,NNW,341,0.0,0.0,83,0.00,,---,0.00,VWS V14.00,2013-02-14 11:20:00,
2013-02-14 06:25:00,35.0,30.4,29.97,NNW,341,0.0,0.0,83,0.00,,---,0.00,VWS V14.00,2013-02-14 11:25:00,
2013-02-14 06:30:00,34.8,30.5,29.98,NNW,341,0.0,0.0,84,0.00,,---,0.00,VWS V14.00,2013-02-14 11:30:00,
2013-02-14 06:35:00,34.5,30.2,29.98,NNW,341,0.0,0.0,84,0.00,,---,0.00,VWS V14.00,2013-02-14 11:35:00,
2013-02-14 06:40:00,34.2,29.9,29.98,NNW,341,0.0,0.0,84,0.00,,---,0.00,VWS V14.00,2013-02-14 11:40:00,
2013-02-14 06:45:00,33.9,29.9,29.99,NNW,341,0.0,0.0,85,0.00,,---,0.00,VWS V14.00,2013-02-14 11:45:00,
2013-02-14 06:50:00,33.7,29.7,29.99,NNW,341,0.0,0.0,85,0.00,,---,0.00,VWS V14.00,2013-02-14 11:50:00,
2013-02-14 06:55:00,33.4,29.4,29.99,NNW,341,0.0,0.0,85,0.00,,---,0.00,VWS V14.00,2013-02-14 11:55:00,
2013-02-14 07:00:00,33.2,29.5,29.99,NNW,341,0.0,0.0,86,0.00,,---,0.00,VWS V14.00,2013-02-14 12:00:00,
2013-02-14 07:05:00,32.9,29.5,29.99,NNW,341,0.0,0.0,87,0.00,,---,0.00,VWS V14.00,2013-02-14 12:05:00,
2013-02-14 07:10:00,32.7,29.3,30.00,NNW,341,0.0,0.0,87,0.00,,---,0.00,VWS V14.00,2013-02-14 12:10:00,
2013-02-14 07:15:00,32.5,29.4,30.01,NNW,341,0.0,0.0,88,0.00,,---,0.00,VWS V14.00,2013-02-14 12:15:00,
2013-02-14 07:20:00,32.3,29.1,30.01,NNW,341,0.0,0.0,88,0.00,,---,0.00,VWS V14.00,2013-02-14 12:20:00,
2013-02-14 07:25:00,32.1,29.0,30.02,NNW,341,0.0,0.0,88,0.00,,---,0.00,VWS V14.00,2013-02-14 12:25:00,
2013-02-14 07:30:00,32.0,29.1,30.02,NNW,341,0.0,0.0,89,0.00,,---,0.00,VWS V14.00,2013-02-14 12:30:00,
2013-02-14 07:35:00,31.9,29.3,30.03,NNW,341,0.0,0.0,90,0.00,,---,0.00,VWS V14.00,2013-02-14 12:35:00,
2013-02-14 07:40:00,32.0,29.4,30.02,NNW,341,0.0,0.0,90,0.00,,---,0.00,VWS V14.00,2013-02-14 12:40:00,
2013-02-14 07:45:00,32.1,29.8,30.03,NNW,341,0.0,0.0,91,0.00,,---,0.00,VWS V14.00,2013-02-14 12:45:00,
2013-02-14 07:50:00,32.4,30.1,30.04,NNW,341,0.0,0.0,91,0.00,,---,0.00,VWS V14.00,2013-02-14 12:50:00,
2013-02-14 07:55:00,32.6,30.3,30.05,NNW,341,0.0,0.0,91,0.00,,---,0.00,VWS V14.00,2013-02-14 12:55:00,
2013-02-14 08:00:00,32.9,30.6,30.05,NNW,341,0.0,0.0,91,0.00,,---,0.00,VWS V14.00,2013-02-14 13:00:00,
2013-02-14 08:05:00,33.1,30.8,30.05,NNW,341,0.0,0.0,91,0.00,,---,0.00,VWS V14.00,2013-02-14 13:05:00,
2013-02-14 08:10:00,33.3,31.0,30.05,NNW,341,0.0,0.0,91,0.00,,---,0.00,VWS V14.00,2013-02-14 13:10:00,
2013-02-14 08:15:00,33.5,31.2,30.05,NNW,341,0.0,0.0,91,0.00,,---,0.00,VWS V14.00,2013-02-14 13:15:00,
2013-02-14 08:20:00,33.9,31.6,30.06,NNW,341,0.0,0.0,91,0.00,,---,0.00,VWS V14.00,2013-02-14 13:20:00,
2013-02-14 08:25:00,34.4,31.8,30.05,NNW,341,0.0,0.0,90,0.00,,---,0.00,VWS V14.00,2013-02-14 13:25:00,
2013-02-14 08:30:00,35.0,31.2,30.06,NNW,341,0.0,0.0,86,0.00,,---,0.00,VWS V14.00,2013-02-14 13:30:00,
2013-02-14 08:35:00,35.5,31.5,30.06,NNW,341,0.0,0.0,85,0.00,,---,0.00,VWS V14.00,2013-02-14 13:35:00,
2013-02-14 08:40:00,36.1,32.0,30.05,NNW,341,0.0,0.0,85,0.00,,---,0.00,VWS V14.00,2013-02-14 13:40:00,
2013-02-14 08:45:00,36.6,33.4,30.06,NNW,341,0.0,0.0,88,0.00,,---,0.00,VWS V14.00,2013-02-14 13:45:00,
2013-02-14 08:50:00,37.1,33.6,30.06,NNW,341,0.0,0.0,87,0.00,,---,0.00,VWS V14.00,2013-02-14 13:50:00,
2013-02-14 08:55:00,37.6,33.8,30.07,NNW,341,0.0,0.0,86,0.00,,---,0.00,VWS V14.00,2013-02-14 13:55:00,
2013-02-14 09:00:00,38.0,33.9,30.07,NNW,341,0.0,0.0,85,0.00,,---,0.00,VWS V14.00,2013-02-14 14:00:00,
2013-02-14 09:05:00,38.5,34.4,30.06,NNW,341,0.0,0.0,85,0.00,,---,0.00,VWS V14.00,2013-02-14 14:05:00,
2013-02-14 09:10:00,38.9,34.2,30.07,NNW,341,2.0,4.0,83,0.00,,---,0.00,VWS V14.00,2013-02-14 14:10:00,
2013-02-14 09:15:00,39.2,34.2,30.07,NNW,339,0.0,0.0,82,0.00,,---,0.00,VWS V14.00,2013-02-14 14:15:00,
2013-02-14 09:20:00,39.5,34.2,30.07,North,355,2.0,4.0,81,0.00,,---,0.00,VWS V14.00,2013-02-14 14:20:00,
2013-02-14 09:25:00,39.8,34.1,30.07,North,5,0.0,0.0,80,0.00,,---,0.00,VWS V14.00,2013-02-14 14:25:00,
2013-02-14 09:30:00,40.0,33.7,30.06,North,5,0.0,0.0,78,0.00,,---,0.00,VWS V14.00,2013-02-14 14:30:00,
2013-02-14 09:35:00,40.3,34.6,30.07,North,5,0.0,0.0,80,0.00,,---,0.00,VWS V14.00,2013-02-14 14:35:00,
2013-02-14 09:40:00,40.7,34.1,30.07,North,5,0.0,0.0,77,0.00,,---,0.00,VWS V14.00,2013-02-14 14:40:00,
2013-02-14 09:45:00,41.1,35.7,30.07,North,5,0.0,0.0,81,0.00,,---,0.00,VWS V14.00,2013-02-14 14:45:00,
2013-02-14 09:50:00,41.5,34.2,30.07,North,5,1.0,3.0,75,0.00,,---,0.00,VWS V14.00,2013-02-14 14:50:00,
2013-02-14 09:55:00,41.9,34.9,30.07,NE,42,4.0,4.0,76,0.00,,---,0.00,VWS V14.00,2013-02-14 14:55:00,
2013-02-14 10:00:00,42.4,34.7,30.07,NNE,14,2.0,5.0,74,0.00,,---,0.00,VWS V14.00,2013-02-14 15:00:00,
2013-02-14 10:05:00,42.9,33.8,30.07,North,360,0.0,2.0,70,0.00,,---,0.00,VWS V14.00,2013-02-14 15:05:00,
2013-02-14 10:10:00,43.3,33.5,30.07,NNW,339,0.0,0.0,68,0.00,,---,0.00,VWS V14.00,2013-02-14 15:10:00,
2013-02-14 10:15:00,43.5,34.0,30.07,North,360,0.0,0.0,69,0.00,,---,0.00,VWS V14.00,2013-02-14 15:15:00,
2013-02-14 10:20:00,44.0,34.9,30.08,East,88,0.0,3.0,70,0.00,,---,0.00,VWS V14.00,2013-02-14 15:20:00,
2013-02-14 10:25:00,44.4,34.1,30.06,East,87,0.0,4.0,67,0.00,,---,0.00,VWS V14.00,2013-02-14 15:25:00,
2013-02-14 10:30:00,44.6,34.7,30.07,ENE,74,1.0,1.0,68,0.00,,---,0.00,VWS V14.00,2013-02-14 15:30:00,
2013-02-14 10:35:00,44.8,34.2,30.08,ESE,103,0.0,0.0,66,0.00,,---,0.00,VWS V14.00,2013-02-14 15:35:00,
2013-02-14 10:40:00,44.9,33.9,30.08,ESE,103,0.0,0.0,65,0.00,,---,0.00,VWS V14.00,2013-02-14 15:40:00,
2013-02-14 10:45:00,44.9,34.6,30.08,ESE,115,5.0,5.0,67,0.00,,---,0.00,VWS V14.00,2013-02-14 15:45:00,
2013-02-14 10:50:00,45.1,34.0,30.07,ESE,123,5.0,5.0,65,0.00,,---,0.00,VWS V14.00,2013-02-14 15:50:00,
2013-02-14 10:55:00,45.4,34.3,30.08,South,170,4.0,4.0,65,0.00,,---,0.00,VWS V14.00,2013-02-14 15:55:00,
2013-02-14 11:00:00,45.9,34.4,30.08,SE,136,10.0,10.0,64,0.00,,---,0.00,VWS V14.00,2013-02-14 16:00:00,
2013-02-14 11:05:00,46.3,34.4,30.08,SSW,194,3.0,3.0,63,0.00,,---,0.00,VWS V14.00,2013-02-14 16:05:00,
2013-02-14 11:10:00,46.7,35.6,30.08,SW,225,5.0,7.0,65,0.00,,---,0.00,VWS V14.00,2013-02-14 16:10:00,
2013-02-14 11:15:00,46.8,34.9,30.08,SSE,159,5.0,9.0,63,0.00,,---,0.00,VWS V14.00,2013-02-14 16:15:00,
2013-02-14 11:20:00,46.8,34.9,30.07,SE,143,1.0,2.0,63,0.00,,---,0.00,VWS V14.00,2013-02-14 16:20:00,
2013-02-14 11:25:00,46.7,34.4,30.08,South,189,5.0,6.0,62,0.00,,---,0.00,VWS V14.00,2013-02-14 16:25:00,
2013-02-14 11:30:00,46.7,34.0,30.08,South,185,0.0,1.0,61,0.00,,---,0.00,VWS V14.00,2013-02-14 16:30:00,
2013-02-14 11:35:00,46.7,34.0,30.08,South,184,2.0,4.0,61,0.00,,---,0.00,VWS V14.00,2013-02-14 16:35:00,
2013-02-14 11:40:00,46.7,34.0,30.08,WSW,238,5.0,5.0,61,0.00,,---,0.00,VWS V14.00,2013-02-14 16:40:00,
2013-02-14 11:45:00,46.8,34.1,30.08,SW,236,0.0,0.0,61,0.00,,---,0.00,VWS V14.00,2013-02-14 16:45:00,
2013-02-14 11:50:00,47.2,34.9,30.07,South,188,7.0,8.0,62,0.00,,---,0.00,VWS V14.00,2013-02-14 16:50:00,
2013-02-14 11:55:00,47.6,33.6,30.08,SW,220,3.0,4.0,58,0.00,,---,0.00,VWS V14.00,2013-02-14 16:55:00,
2013-02-14 12:00:00,47.9,34.7,30.07,West,265,6.0,8.0,60,0.00,,---,0.00,VWS V14.00,2013-02-14 17:00:00,
2013-02-14 12:05:00,47.9,34.7,30.08,SW,214,4.0,8.0,60,0.00,,---,0.00,VWS V14.00,2013-02-14 17:05:00,
2013-02-14 12:10:00,48.1,35.7,30.07,WSW,245,0.0,3.0,62,0.00,,---,0.00,VWS V14.00,2013-02-14 17:10:00,
2013-02-14 12:15:00,48.4,34.3,30.07,South,178,4.0,8.0,58,0.00,,---,0.00,VWS V14.00,2013-02-14 17:15:00,
2013-02-14 12:20:00,48.6,34.5,30.07,SW,220,14.0,14.0,58,0.00,,---,0.00,VWS V14.00,2013-02-14 17:20:00,
2013-02-14 12:25:00,48.8,35.1,30.07,SSW,199,9.0,11.0,59,0.00,,---,0.00,VWS V14.00,2013-02-14 17:25:00,
2013-02-14 12:30:00,49.0,34.9,30.07,SW,220,1.0,5.0,58,0.00,,---,0.00,VWS V14.00,2013-02-14 17:30:00,
2013-02-14 12:35:00,49.4,35.7,30.07,SSE,164,6.0,7.0,59,0.00,,---,0.00,VWS V14.00,2013-02-14 17:35:00,
2013-02-14 12:40:00,49.8,35.2,30.06,West,265,4.0,8.0,57,0.00,,---,0.00,VWS V14.00,2013-02-14 17:40:00,
2013-02-14 12:45:00,50.0,35.8,30.06,SSW,213,9.0,11.0,58,0.00,,---,0.00,VWS V14.00,2013-02-14 17:45:00,
2013-02-14 12:50:00,50.3,37.0,30.06,SW,217,6.0,9.0,60,0.00,,---,0.00,VWS V14.00,2013-02-14 17:50:00,
2013-02-14 12:55:00,50.5,36.3,30.05,SW,226,9.0,13.0,58,0.00,,---,0.00,VWS V14.00,2013-02-14 17:55:00,
2013-02-14 13:00:00,50.6,35.9,30.05,SSW,213,2.0,2.0,57,0.00,,---,0.00,VWS V14.00,2013-02-14 18:00:00,
2013-02-14 13:05:00,50.8,36.1,30.05,WSW,246,9.0,9.0,57,0.00,,---,0.00,VWS V14.00,2013-02-14 18:05:00,
2013-02-14 13:10:00,51.1,35.0,30.04,SW,214,0.0,2.0,54,0.00,,---,0.00,VWS V14.00,2013-02-14 18:10:00,
2013-02-14 13:15:00,51.2,35.1,30.04,SSW,192,1.0,5.0,54,0.00,,---,0.00,VWS V14.00,2013-02-14 18:15:00,
2013-02-14 13:20:00,51.5,35.4,30.04,South,186,8.0,8.0,54,0.00,,---,0.00,VWS V14.00,2013-02-14 18:20:00,
2013-02-14 13:25:00,51.4,34.9,30.03,SW,229,1.0,6.0,53,0.00,,---,0.00,VWS V14.00,2013-02-14 18:25:00,
2013-02-14 13:30:00,51.5,36.3,30.03,SW,222,6.0,7.0,56,0.00,,---,0.00,VWS V14.00,2013-02-14 18:30:00,
2013-02-14 13:35:00,51.8,35.2,30.04,South,171,0.0,5.0,53,0.00,,---,0.00,VWS V14.00,2013-02-14 18:35:00,
2013-02-14 13:40:00,52.0,36.3,30.03,West,263,3.0,7.0,55,0.00,,---,0.00,VWS V14.00,2013-02-14 18:40:00,
2013-02-14 13:45:00,52.1,36.0,30.03,SSW,209,7.0,7.0,54,0.00,,---,0.00,VWS V14.00,2013-02-14 18:45:00,
2013-02-14 13:50:00,52.3,36.2,30.02,West,259,0.0,5.0,54,0.00,,---,0.00,VWS V14.00,2013-02-14 18:50:00,
2013-02-14 13:55:00,52.5,35.9,30.02,SW,232,5.0,8.0,53,0.00,,---,0.00,VWS V14.00,2013-02-14 18:55:00,
2013-02-14 14:00:00,52.6,35.5,30.01,SSE,147,5.0,7.0,52,0.00,,---,0.00,VWS V14.00,2013-02-14 19:00:00,
2013-02-14 14:05:00,52.4,35.3,30.01,SW,215,8.0,11.0,52,0.00,,---,0.00,VWS V14.00,2013-02-14 19:05:00,
2013-02-14 14:10:00,52.0,34.9,30.01,West,263,1.0,7.0,52,0.00,,---,0.00,VWS V14.00,2013-02-14 19:10:00,
2013-02-14 14:15:00,52.0,35.9,30.02,SW,220,7.0,8.0,54,0.00,,---,0.00,VWS V14.00,2013-02-14 19:15:00,
2013-02-14 14:20:00,52.2,35.6,30.01,WSW,250,7.0,8.0,53,0.00,,---,0.00,VWS V14.00,2013-02-14 19:20:00,
2013-02-14 14:25:00,52.3,36.2,30.01,SW,221,1.0,3.0,54,0.00,,---,0.00,VWS V14.00,2013-02-14 19:25:00,
2013-02-14 14:30:00,52.5,36.8,30.02,SW,223,3.0,5.0,55,0.00,,---,0.00,VWS V14.00,2013-02-14 19:30:00,
2013-02-14 14:35:00,52.7,34.6,30.01,SW,233,6.0,9.0,50,0.00,,---,0.00,VWS V14.00,2013-02-14 19:35:00,
2013-02-14 14:40:00,52.4,35.8,30.01,West,259,3.0,8.0,53,0.00,,---,0.00,VWS V14.00,2013-02-14 19:40:00,
2013-02-14 14:45:00,52.4,34.3,30.01,WSW,252,6.0,9.0,50,0.00,,---,0.00,VWS V14.00,2013-02-14 19:45:00,
2013-02-14 14:50:00,52.3,35.2,30.02,SW,232,5.0,12.0,52,0.00,,---,0.00,VWS V14.00,2013-02-14 19:50:00,
2013-02-14 14:55:00,52.3,35.7,30.01,WSW,238,4.0,10.0,53,0.00,,---,0.00,VWS V14.00,2013-02-14 19:55:00,
2013-02-14 15:00:00,52.6,35.5,30.01,SSW,196,10.0,11.0,52,0.00,,---,0.00,VWS V14.00,2013-02-14 20:00:00,
2013-02-14 15:05:00,52.5,34.9,30.02,SSW,194,2.0,5.0,51,0.00,,---,0.00,VWS V14.00,2013-02-14 20:05:00,
2013-02-14 15:10:00,52.4,35.3,30.02,SSW,194,8.0,13.0,52,0.00,,---,0.00,VWS V14.00,2013-02-14 20:10:00,
2013-02-14 15:15:00,52.5,35.4,30.01,SSW,208,5.0,12.0,52,0.00,,---,0.00,VWS V14.00,2013-02-14 20:15:00,
2013-02-14 15:20:00,52.6,35.5,30.01,SW,236,8.0,9.0,52,0.00,,---,0.00,VWS V14.00,2013-02-14 20:20:00,
2013-02-14 15:25:00,52.4,35.3,30.02,SW,234,12.0,13.0,52,0.00,,---,0.00,VWS V14.00,2013-02-14 20:25:00,
2013-02-14 15:30:00,52.2,35.6,30.02,SW,222,7.0,8.0,53,0.00,,---,0.00,VWS V14.00,2013-02-14 20:30:00,
2013-02-14 15:35:00,52.2,35.1,30.02,WSW,244,6.0,9.0,52,0.00,,---,0.00,VWS V14.00,2013-02-14 20:35:00,
2013-02-14 15:40:00,52.2,36.1,30.02,SSW,208,3.0,6.0,54,0.00,,---,0.00,VWS V14.00,2013-02-14 20:40:00,
2013-02-14 15:45:00,52.2,35.6,30.01,SSW,195,3.0,3.0,53,0.00,,---,0.00,VWS V14.00,2013-02-14 20:45:00,
2013-02-14 15:50:00,52.1,36.0,30.01,WSW,258,6.0,6.0,54,0.00,,---,0.00,VWS V14.00,2013-02-14 20:50:00,
2013-02-14 15:55:00,52.0,36.3,30.01,NW,321,4.0,4.0,55,0.00,,---,0.00,VWS V14.00,2013-02-14 20:55:00,
2013-02-14 16:00:00,51.7,35.6,30.01,West,277,3.0,3.0,54,0.00,,---,0.00,VWS V14.00,2013-02-14 21:00:00,
2013-02-14 16:05:00,51.7,35.6,30.00,SSW,197,2.0,3.0,54,0.00,,---,0.00,VWS V14.00,2013-02-14 21:05:00,
2013-02-14 16:10:00,51.6,35.0,30.00,SSW,213,1.0,1.0,53,0.00,,---,0.00,VWS V14.00,2013-02-14 21:10:00,
2013-02-14 16:15:00,51.6,35.0,30.00,SW,231,7.0,7.0,53,0.00,,---,0.00,VWS V14.00,2013-02-14 21:15:00,
2013-02-14 16:20:00,51.8,35.2,30.00,WSW,244,9.0,10.0,53,0.00,,---,0.00,VWS V14.00,2013-02-14 21:20:00,
2013-02-14 16:25:00,51.9,35.8,30.01,SW,229,4.0,8.0,54,0.00,,---,0.00,VWS V14.00,2013-02-14 21:25:00,
2013-02-14 16:30:00,51.7,35.6,30.01,WSW,248,2.0,2.0,54,0.00,,---,0.00,VWS V14.00,2013-02-14 21:30:00,
2013-02-14 16:35:00,51.7,35.6,30.01,SSW,213,2.0,3.0,54,0.00,,---,0.00,VWS V14.00,2013-02-14 21:35:00,
2013-02-14 16:40:00,51.7,36.1,30.01,SW,219,10.0,10.0,55,0.00,,---,0.00,VWS V14.00,2013-02-14 21:40:00,
2013-02-14 16:45:00,51.7,36.1,30.00,WSW,258,5.0,6.0,55,0.00,,---,0.00,VWS V14.00,2013-02-14 21:45:00,
2013-02-14 16:50:00,51.6,36.0,30.00,WSW,249,4.0,5.0,55,0.00,,---,0.00,VWS V14.00,2013-02-14 21:50:00,
2013-02-14 16:55:00,51.5,35.4,30.00,WSW,238,1.0,2.0,54,0.00,,---,0.00,VWS V14.00,2013-02-14 21:55:00,
2013-02-14 17:00:00,51.5,35.9,30.00,SSW,204,6.0,6.0,55,0.00,,---,0.00,VWS V14.00,2013-02-14 22:00:00,
2013-02-14 17:05:00,51.5,36.3,30.00,SW,236,8.0,8.0,56,0.00,,---,0.00,VWS V14.00,2013-02-14 22:05:00,
2013-02-14 17:10:00,51.3,36.2,30.00,SW,234,7.0,10.0,56,0.00,,---,0.00,VWS V14.00,2013-02-14 22:10:00,
2013-02-14 17:15:00,51.2,36.1,30.00,SSE,166,7.0,7.0,56,0.00,,---,0.00,VWS V14.00,2013-02-14 22:15:00,
2013-02-14 17:20:00,51.1,35.5,30.00,SW,217,5.0,5.0,55,0.00,,---,0.00,VWS V14.00,2013-02-14 22:20:00,
2013-02-14 17:25:00,50.9,35.3,30.00,SW,235,0.0,1.0,55,0.00,,---,0.00,VWS V14.00,2013-02-14 22:25:00,
2013-02-14 17:30:00,50.8,34.3,30.00,SW,230,3.0,4.0,53,0.00,,---,0.00,VWS V14.00,2013-02-14 22:30:00,
2013-02-14 17:35:00,50.7,34.7,30.00,WSW,243,4.0,4.0,54,0.00,,---,0.00,VWS V14.00,2013-02-14 22:35:00,
2013-02-14 17:40:00,50.5,34.0,30.00,SSW,209,4.0,4.0,53,0.00,,---,0.00,VWS V14.00,2013-02-14 22:40:00,
2013-02-14 17:45:00,50.3,33.8,30.00,West,266,3.0,4.0,53,0.00,,---,0.00,VWS V14.00,2013-02-14 22:45:00,
2013-02-14 17:50:00,50.1,34.1,30.00,West,266,1.0,1.0,54,0.00,,---,0.00,VWS V14.00,2013-02-14 22:50:00,
2013-02-14 17:55:00,49.9,34.4,30.00,West,266,0.0,1.0,55,0.00,,---,0.00,VWS V14.00,2013-02-14 22:55:00,
2013-02-14 18:00:00,49.7,34.2,30.01,WSW,249,1.0,3.0,55,0.00,,---,0.00,VWS V14.00,2013-02-14 23:00:00,
2013-02-14 18:05:00,49.5,34.5,30.01,WSW,249,0.0,0.0,56,0.00,,---,0.00,VWS V14.00,2013-02-14 23:05:00,
2013-02-14 18:10:00,49.3,35.2,30.01,WSW,249,2.0,2.0,58,0.00,,---,0.00,VWS V14.00,2013-02-14 23:10:00,
2013-02-14 18:15:00,49.0,34.9,30.01,WSW,249,0.0,0.0,58,0.00,,---,0.00,VWS V14.00,2013-02-14 23:15:00,
2013-02-14 18:20:00,48.7,34.6,30.01,WSW,249,0.0,0.0,58,0.00,,---,0.00,VWS V14.00,2013-02-14 23:20:00,
2013-02-14 18:26:00,48.5,35.3,30.01,WSW,249,0.0,0.0,60,0.00,,---,0.00,VWS V14.00,2013-02-14 23:26:00,
2013-02-14 18:31:00,48.1,35.7,30.01,WSW,249,0.0,2.0,62,0.00,,---,0.00,VWS V14.00,2013-02-14 23:31:00,
2013-02-14 18:36:00,47.7,35.3,30.01,WSW,249,0.0,0.0,62,0.00,,---,0.00,VWS V14.00,2013-02-14 23:36:00,
2013-02-14 18:41:00,47.4,35.5,30.01,WSW,249,0.0,0.0,63,0.00,,---,0.00,VWS V14.00,2013-02-14 23:41:00,
2013-02-14 18:46:00,47.0,35.9,30.01,WSW,249,0.0,0.0,65,0.00,,---,0.00,VWS V14.00,2013-02-14 23:46:00,
2013-02-14 18:51:00,46.6,35.5,30.02,WSW,249,0.0,0.0,65,0.00,,---,0.00,VWS V14.00,2013-02-14 23:51:00,
2013-02-14 18:56:00,46.2,35.9,30.02,WSW,249,0.0,0.0,67,0.00,,---,0.00,VWS V14.00,2013-02-14 23:56:00,
2013-02-14 19:01:00,45.7,35.4,30.02,WSW,249,0.0,0.0,67,0.00,,---,0.00,VWS V14.00,2013-02-15 00:01:00,
2013-02-14 19:06:00,45.3,35.7,30.02,WSW,249,0.0,0.0,69,0.00,,---,0.00,VWS V14.00,2013-02-15 00:06:00,
2013-02-14 19:11:00,44.9,35.7,30.02,WSW,249,0.0,0.0,70,0.00,,---,0.00,VWS V14.00,2013-02-15 00:11:00,
2013-02-14 19:16:00,44.3,35.5,30.02,WSW,249,0.0,0.0,71,0.00,,---,0.00,VWS V14.00,2013-02-15 00:16:00,
2013-02-14 19:21:00,43.8,35.7,30.03,WSW,249,0.0,0.0,73,0.00,,---,0.00,VWS V14.00,2013-02-15 00:21:00,
2013-02-14 19:26:00,43.5,35.4,30.02,WSW,249,0.0,0.0,73,0.00,,---,0.00,VWS V14.00,2013-02-15 00:26:00,
2013-02-14 19:31:00,43.2,35.5,30.02,WSW,249,0.0,0.0,74,0.00,,---,0.00,VWS V14.00,2013-02-15 00:31:00,
2013-02-14 19:36:00,42.9,35.5,30.02,WSW,249,0.0,0.0,75,0.00,,---,0.00,VWS V14.00,2013-02-15 00:36:00,
2013-02-14 19:41:00,42.5,35.2,30.02,WSW,249,0.0,0.0,75,0.00,,---,0.00,VWS V14.00,2013-02-15 00:41:00,
2013-02-14 19:46:00,42.4,35.0,30.01,WSW,249,1.0,1.0,75,0.00,,---,0.00,VWS V14.00,2013-02-15 00:46:00,
2013-02-14 19:51:00,42.8,35.4,30.01,WSW,249,0.0,3.0,75,0.00,,---,0.00,VWS V14.00,2013-02-15 00:51:00,
2013-02-14 19:56:00,43.3,35.6,30.02,WSW,249,0.0,0.0,74,0.00,,---,0.00,VWS V14.00,2013-02-15 00:56:00,
2013-02-14 20:01:00,43.5,35.4,30.02,WSW,249,0.0,1.0,73,0.00,,---,0.00,VWS V14.00,2013-02-15 01:01:00,
2013-02-14 20:06:00,43.6,35.5,30.02,WSW,249,0.0,0.0,73,0.00,,---,0.00,VWS V14.00,2013-02-15 01:06:00,
2013-02-14 20:11:00,43.6,35.5,30.03,WSW,249,0.0,0.0,73,0.00,,---,0.00,VWS V14.00,2013-02-15 01:11:00,
2013-02-14 20:16:00,43.4,35.7,30.03,WSW,249,0.0,0.0,74,0.00,,---,0.00,VWS V14.00,2013-02-15 01:16:00,
2013-02-14 20:21:00,43.1,35.7,30.03,WSW,249,1.0,1.0,75,0.00,,---,0.00,VWS V14.00,2013-02-15 01:21:00,
2013-02-14 20:26:00,42.9,35.5,30.03,WSW,249,0.0,0.0,75,0.00,,---,0.00,VWS V14.00,2013-02-15 01:26:00,
2013-02-14 20:31:00,42.7,35.3,30.04,WSW,249,0.0,0.0,75,0.00,,---,0.00,VWS V14.00,2013-02-15 01:31:00,
2013-02-14 20:36:00,42.5,35.5,30.04,WSW,249,0.0,0.0,76,0.00,,---,0.00,VWS V14.00,2013-02-15 01:36:00,
2013-02-14 20:41:00,42.4,35.4,30.04,WSW,249,0.0,0.0,76,0.00,,---,0.00,VWS V14.00,2013-02-15 01:41:00,
2013-02-14 20:46:00,42.2,35.2,30.04,WSW,249,0.0,0.0,76,0.00,,---,0.00,VWS V14.00,2013-02-15 01:46:00,
2013-02-14 20:51:00,42.1,35.4,30.05,WSW,249,3.0,3.0,77,0.00,,---,0.00,VWS V14.00,2013-02-15 01:51:00,
2013-02-14 20:56:00,42.0,35.3,30.05,WSW,249,0.0,0.0,77,0.00,,---,0.00,VWS V14.00,2013-02-15 01:56:00,
2013-02-14 21:01:00,42.0,35.3,30.05,WSW,249,0.0,0.0,77,0.00,,---,0.00,VWS V14.00,2013-02-15 02:01:00,
2013-02-14 21:06:00,41.9,35.2,30.05,WSW,249,0.0,0.0,77,0.00,,---,0.00,VWS V14.00,2013-02-15 02:06:00,
2013-02-14 21:11:00,41.8,35.1,30.05,WSW,249,0.0,0.0,77,0.00,,---,0.00,VWS V14.00,2013-02-15 02:11:00,
2013-02-14 21:16:00,41.5,35.2,30.05,WSW,249,0.0,0.0,78,0.00,,---,0.00,VWS V14.00,2013-02-15 02:16:00,
2013-02-14 21:21:00,41.2,35.2,30.05,WSW,249,0.0,0.0,79,0.00,,---,0.00,VWS V14.00,2013-02-15 02:21:00,
2013-02-14 21:26:00,40.7,34.7,30.05,WSW,249,0.0,0.0,79,0.00,,---,0.00,VWS V14.00,2013-02-15 02:26:00,
2013-02-14 21:31:00,40.4,34.7,30.05,WSW,249,0.0,0.0,80,0.00,,---,0.00,VWS V14.00,2013-02-15 02:31:00,
2013-02-14 21:36:00,40.1,34.8,30.05,WSW,249,0.0,0.0,81,0.00,,---,0.00,VWS V14.00,2013-02-15 02:36:00,
2013-02-14 21:41:00,39.7,34.7,30.06,WSW,249,0.0,0.0,82,0.00,,---,0.00,VWS V14.00,2013-02-15 02:41:00,
2013-02-14 21:46:00,39.4,34.4,30.06,WSW,249,0.0,0.0,82,0.00,,---,0.00,VWS V14.00,2013-02-15 02:46:00,
2013-02-14 21:51:00,39.2,34.2,30.06,WSW,249,0.0,0.0,82,0.00,,---,0.00,VWS V14.00,2013-02-15 02:51:00,
2013-02-14 21:56:00,39.0,34.3,30.06,WSW,249,0.0,0.0,83,0.00,,---,0.00,VWS V14.00,2013-02-15 02:56:00,
2013-02-14 22:01:00,38.8,34.1,30.06,WSW,249,0.0,0.0,83,0.00,,---,0.00,VWS V14.00,2013-02-15 03:01:00,
2013-02-14 22:06:00,38.6,33.9,30.06,WSW,249,0.0,0.0,83,0.00,,---,0.00,VWS V14.00,2013-02-15 03:06:00,
2013-02-14 22:11:00,38.4,34.0,30.06,WSW,249,0.0,0.0,84,0.00,,---,0.00,VWS V14.00,2013-02-15 03:11:00,
2013-02-14 22:16:00,38.3,34.2,30.06,WSW,249,0.0,0.0,85,0.00,,---,0.00,VWS V14.00,2013-02-15 03:16:00,
2013-02-14 22:21:00,38.2,34.1,30.06,WSW,249,0.0,2.0,85,0.00,,---,0.00,VWS V14.00,2013-02-15 03:21:00,
2013-02-14 22:26:00,38.1,34.3,30.06,WSW,249,0.0,0.0,86,0.00,,---,0.00,VWS V14.00,2013-02-15 03:26:00,
2013-02-14 22:31:00,38.3,34.5,30.06,WSW,249,1.0,2.0,86,0.00,,---,0.00,VWS V14.00,2013-02-15 03:31:00,
2013-02-14 22:36:00,38.5,34.4,30.07,WSW,249,3.0,4.0,85,0.00,,---,0.00,VWS V14.00,2013-02-15 03:36:00,
2013-02-14 22:41:00,39.0,34.9,30.07,WSW,249,2.0,4.0,85,0.00,,---,0.00,VWS V14.00,2013-02-15 03:41:00,
2013-02-14 22:46:00,39.6,35.2,30.06,WSW,249,1.0,3.0,84,0.00,,---,0.00,VWS V14.00,2013-02-15 03:46:00,
2013-02-14 22:51:00,40.1,35.4,30.06,WSW,249,1.0,5.0,83,0.00,,---,0.00,VWS V14.00,2013-02-15 03:51:00,
2013-02-14 22:56:00,40.6,35.5,30.07,WSW,249,2.0,6.0,82,0.00,,---,0.00,VWS V14.00,2013-02-15 03:56:00,
2013-02-14 23:01:00,41.0,35.6,30.06,WSW,249,2.0,5.0,81,0.00,,---,0.00,VWS V14.00,2013-02-15 04:01:00,
2013-02-14 23:06:00,41.3,35.6,30.07,WSW,249,3.0,3.0,80,0.00,,---,0.00,VWS V14.00,2013-02-15 04:06:00,
2013-02-14 23:11:00,41.4,35.7,30.06,WSW,249,2.0,3.0,80,0.00,,---,0.00,VWS V14.00,2013-02-15 04:11:00,
2013-02-14 23:16:00,41.6,35.6,30.07,WSW,249,4.0,4.0,79,0.00,,---,0.00,VWS V14.00,2013-02-15 04:16:00,
2013-02-14 23:21:00,41.7,35.7,30.07,WSW,249,1.0,4.0,79,0.00,,---,0.00,VWS V14.00,2013-02-15 04:21:00,
2013-02-14 23:26:00,41.8,35.8,30.07,WSW,249,1.0,4.0,79,0.00,,---,0.00,VWS V14.00,2013-02-15 04:26:00,
2013-02-14 23:31:00,41.9,35.5,30.07,WSW,247,0.0,2.0,78,0.00,,---,0.00,VWS V14.00,2013-02-15 04:31:00,
2013-02-14 23:36:00,41.9,35.5,30.07,WSW,239,2.0,4.0,78,0.00,,---,0.00,VWS V14.00,2013-02-15 04:36:00,
2013-02-14 23:41:00,41.9,35.5,30.07,WSW,239,3.0,4.0,78,0.00,,---,0.00,VWS V14.00,2013-02-15 04:41:00,
2013-02-14 23:46:00,42.0,35.7,30.07,WSW,239,0.0,4.0,78,0.00,,---,0.00,VWS V14.00,2013-02-15 04:46:00,
2013-02-14 23:51:00,41.9,35.5,30.07,WSW,239,1.0,2.0,78,0.00,,---,0.00,VWS V14.00,2013-02-15 04:51:00,
2013-02-14 23:56:00,41.8,35.8,30.07,WSW,239,0.0,1.0,79,0.00,,---,0.00,VWS V14.00,2013-02-15 04:56:00,